Home   Weather   Bruges   Past weeks

Flag for Belgium Past Weather in Bruges, Belgium — Yesterday and Last 2 Weeks

Now
48 °F

Passing clouds.


Feels Like: 42 °F
Forecast: 40 / 46 °F
Wind: 16 mph from Northwest

Location: Oostende Airport

Current Time: Dec 11, 2016 at 3:36:09 am

Latest Report: Dec 11, 2016 at 2:50 am


Visibility: N/A

Pressure: 30.12 "Hg

Humidity: 87%

Dew Point: 45 °F

Location of BrugesLocation

Past Weather in Bruges — Graph

°F

Bruges Temperature Yesterday

Maximum temperature yesterday: 50 °F (at 2:50 pm)
Minimum temperature yesterday: 41 °F (at 5:20 am)
Average temperature yesterday: 46 °F

High & Low Weather Summary for the Past Weeks

 TemperatureHumidityPressure
High52 °F (Dec 9, 12:20 pm)100% (Nov 26, 9:50 pm)30.57 "Hg (Nov 26, 9:50 pm)
Low23 °F (Nov 30, 3:20 am)53% (Nov 28, 12:50 pm)30.04 "Hg (Dec 10, 11:50 pm)
Average39 °F83%30.33 "Hg
* Reported Nov 26 2:20 am — Dec 11 2:20 am, Bruges, Weather by CustomWeather, © 2016

Note: Actual official high and low records may vary slightly from our data, if they occured in-between our weather recording intervals... More about our weather records

Advertising

Bruges Weather History for the Previous 24 Hours

Scroll right to see more
 ConditionsComfort  
Time TempWeatherWind HumidityBarometerVisibility
2:20 am
Sun, Dec 11
48 °FPassing clouds.16 mph82%30.12 "HgN/A
1:50 am48 °FPassing clouds.15 mph82%30.09 "HgN/A
1:20 am46 °FRain. Partly cloudy.21 mph93%30.07 "Hg2 mi
12:50 am50 °FLight rain. Partly cloudy.20 mph94%30.04 "Hg4 mi
12:20 am50 °FLight rain. Passing clouds.18 mph94%30.04 "Hg4 mi
11:50 pm
Sat, Dec 10
48 °FLight rain. Passing clouds.13 mph94%30.04 "Hg4 mi
11:20 pm48 °FPassing clouds.16 mph87%30.07 "HgN/A
10:50 pm50 °FPassing clouds.17 mph82%30.07 "HgN/A
10:20 pm48 °FPassing clouds.15 mph87%30.07 "HgN/A
9:50 pm50 °FPassing clouds.14 mph82%30.09 "HgN/A
9:20 pm50 °FPassing clouds.14 mph82%30.09 "HgN/A
8:50 pm50 °FLight rain. Passing clouds.15 mph88%30.09 "HgN/A
8:20 pm48 °FPassing clouds.15 mph94%30.12 "HgN/A
7:50 pm50 °FPassing clouds.13 mph88%30.12 "Hg5 mi
7:20 pm50 °FPassing clouds.13 mph88%30.15 "Hg5 mi
6:50 pm50 °FPassing clouds.14 mph88%30.15 "Hg4 mi
6:20 pm50 °FPassing clouds.10 mph88%30.15 "Hg4 mi
5:50 pm50 °FPassing clouds.12 mph88%30.18 "Hg4 mi
5:20 pm50 °FFog.12 mph88%30.18 "Hg3 mi
4:50 pm50 °FFog.10 mph88%30.18 "Hg2 mi
4:20 pm50 °FDrizzle. Fog.12 mph88%30.18 "Hg2 mi
3:50 pm50 °FDrizzle. Fog.10 mph88%30.18 "Hg2 mi
3:20 pm50 °FFog.12 mph88%30.18 "Hg2 mi
2:50 pm50 °FFog.12 mph88%30.21 "Hg2 mi
2:20 pm48 °FFog.13 mph94%30.21 "Hg2 mi
1:50 pm48 °FFog.12 mph94%30.21 "Hg2 mi
1:20 pm48 °FFog.9 mph87%30.21 "Hg2 mi
12:50 pm48 °FFog.10 mph87%30.24 "Hg1 mi
12:20 pm46 °FDrizzle. Fog.12 mph93%30.24 "Hg1 mi
11:50 am46 °FDrizzle. Fog.12 mph93%30.24 "Hg1 mi
11:20 am46 °FFog.10 mph93%30.24 "Hg1 mi
10:50 am46 °FFog.10 mph93%30.24 "Hg1 mi
9:50 am45 °FFog.10 mph93%30.24 "Hg2 mi
9:20 am45 °FFog.10 mph93%30.24 "Hg2 mi
8:50 am45 °FFog.10 mph93%30.24 "Hg2 mi
8:20 am45 °FPassing clouds.6 mph87%30.21 "Hg4 mi
7:50 am43 °FPassing clouds.9 mph93%30.21 "Hg4 mi
7:20 am43 °FPassing clouds.8 mph87%30.24 "Hg5 mi
6:50 am43 °FPassing clouds.8 mph87%30.21 "Hg5 mi
6:20 am41 °FPassing clouds.8 mph87%30.21 "Hg6 mi
5:50 am41 °FClear.8 mph87%30.21 "Hg10 mi
5:20 am41 °FPassing clouds.5 mph87%30.24 "HgN/A
4:50 am43 °FClear.8 mph87%30.24 "Hg6 mi
4:20 am43 °FClear.7 mph81%30.24 "Hg6 mi
3:50 am43 °FClear.7 mph81%30.24 "Hg6 mi
3:20 am43 °FClear.12 mph87%30.24 "Hg6 mi
Weather by CustomWeather, © 2016

See weather overviewHow to use our weather pages